Location: Asheville, NC
(35.6000°N, 82.5500°W)
Time: 18:15:50
(UTC-04:00)

Iridium 28 - Pass Details

Date: 05 January 2018
Orbit: 771 x 775 km, 86.4° (Epoch: 20 July)

Event Time Altitude Azimuth Distance (km) Brightness Sun altitude
Rises 18:39:28 0° 356° (N) 3,255 8.6 -13.6°
Reaches altitude 10° 18:41:49 10° 356° (N) 2,324 7.9 -14.0°
Maximum altitude 18:47:01 82° 270° (W) 785 5.6 -15.0°
Drops below altitude 10° 18:52:12 10° 183° (S) 2,310 8.2 -16.1°
Sets 18:54:31 0° 182° (S) 3,234 9.0 -16.5°
